Погода в Новониколаевке

Украина / Херсонская область     46°14′45″N   34°01′01″E
В апреле 2022 года жителям России запретили посещать сайт meteo.paraplan.net по решению Генеральной прокуратуры. Аудитория сайта уменьшилась в 10 раз. Владельцы сайта не видят смысла в поддержке погодного сервера в таких условиях. Сайт будет закрыт в октябре.
темп.,
°C
ветер,
м/с
пор.,
м/с
влажн.,
%
обл.,
%
осадки,
мм/ч
давл.,
гПа
погр.,
м
25 сентября, вс
вс2500:00+12зсз59565 0.0 1019310
03:00+11зсз47620 0.0 1020244
06:00+10зсз46663 0.0 1020189
09:00+14з47545 0.0 1021469
12:00+18зюз694021 0.0 10211861
15:00+19зюз89485 0.0 10191587
18:00+18зюз79615 0.0 1019925
21:00+17юз7106723 0.2 1019576
26 сентября, пн
пн2600:00+16юз696991 0.0 1018401
03:00+15ююз687193 0.0 1018313
06:00+15ююз6874100 0.0 1017242
09:00+16ю5766100 0.0 1017312
12:00+19ю455444 0.0 1016822
15:00+20юв4449100 0.0 1015704
18:00+20вюв565144 0.0 1014203
21:00+18ююв4577100 0.0 1013118
27 сентября, вт
вт2700:00+17ю3377100 0.0 101257
03:00+17ююв2281100 0.0 101050
06:00+17ююв3477100 0.0 100990
09:00+18ююв4567100 0.0 1008210
12:00+22ююв464676 0.0 1006517
15:00+23юв564335 0.0 1004528
18:00+22ю355685 0.0 100388
21:00+20ююз61075100 0.0 1003431
28 сентября, ср
ср2800:00+19юз61081100 0.1 1003489
03:00+19ююз6983100 0.9 1003409
06:00+18юз698280 0.1 1003407
09:00+19юз688326 0.1 1004557
12:00+21юз710665 0.0 1004797
15:00+23зюз68553 0.0 1004748
18:00+21зюз57640 0.1 1005247
21:00+18юз34809 0.3 100783
29 сентября, чт
чт2900:00+17з34830 0.0 100872
03:00+16зсз22840 0.0 100955
06:00+16зсз11825 0.0 100939
09:00+18вюв116990 0.0 1011182
12:00+21ю21605 0.0 1011515
15:00+22ю325227 0.0 1011696
18:00+20ююв446523 0.0 101287
21:00+19юв5678100 0.0 101399